Location: Campolattaro
(41.2833°N, 14.7333°E)
Time: 05:49:41
(UTC+00:00)

Cosmos 1633 Rocket - Pass Details

Date: 19 May 2025
Orbit: 600 x 618 km, 82.5° (Epoch: 22 June)

Event Time Altitude Azimuth Distance (km) Brightness Sun altitude
Rises 22:55:27 0° 360° (N) 2,876 7.7 -28.7°
Reaches altitude 10° 22:57:49 10° 8° (N) 1,965 6.6 -28.7°
Enters shadow 23:00:56 33° 47° (NE) 1,017 4.4 -28.7°
